Location: Street
(51.1247°N, 2.7429°W)
Time: 07:38:10
(UTC+00:00)

Tiros 1 - Pass Details

Date: 01 December 2020
Orbit: 630 x 663 km, 48.4° (Epoch: 28 January)

Event Time Altitude Azimuth Distance (km) Brightness Sun altitude
Rises 19:24:16 0° 279° (W) 2,991 11.7 -30.0°
Reaches altitude 10° 19:26:45 10° 271° (W) 2,073 10.7 -30.4°
Enters shadow 19:30:06 32° 233° (SW) 1,116 8.7 -30.9°
Maximum altitude 19:31:08 36° 205° (SSW) 1,029 - -31.1°
Drops below altitude 10° 19:35:27 10° 139° (SE) 2,049 - -31.7°
Sets 19:37:54 0° 131° (SE) 2,951 - -32.1°
